Time,TemperatureF,DewpointF,PressureIn,WindDirection,WindDirectionDegrees,WindSpeedMPH,WindSpeedGustMPH,Humidity,HourlyPrecipIn,Conditions,Clouds,dailyrainin,SoftwareType,DateUTC
2013-04-15 00:01:00,63.0,47.0,30.05,WNW,293,0.0,1.0,55,0.00,,,0.00,,2013-04-14 21:01:00,
2013-04-15 00:12:00,63.0,47.0,30.05,WNW,293,0.0,1.0,55,0.00,,,0.00,,2013-04-14 21:12:00,
2013-04-15 00:22:00,63.0,46.0,30.06,NE,35,3.0,4.0,54,0.00,,,0.00,,2013-04-14 21:22:00,
2013-04-15 00:32:00,63.0,46.0,30.06,NE,35,2.0,4.0,53,0.00,,,0.00,,2013-04-14 21:32:00,
2013-04-15 00:42:00,63.0,46.0,30.06,NE,35,2.0,4.0,53,0.00,,,0.00,,2013-04-14 21:42:00,
2013-04-15 00:53:00,63.0,46.0,30.05,NNE,18,1.0,5.0,54,0.00,,,0.00,,2013-04-14 21:53:00,
2013-04-15 01:02:00,63.0,46.0,30.06,NE,37,1.0,4.0,54,0.00,,,0.00,,2013-04-14 22:02:00,
2013-04-15 01:12:00,63.0,46.0,30.06,NE,37,1.0,4.0,54,0.00,,,0.00,,2013-04-14 22:12:00,
2013-04-15 01:22:00,63.0,46.0,30.05,NE,34,3.0,5.0,54,0.00,,,0.00,,2013-04-14 22:22:00,
2013-04-15 01:32:00,63.0,46.0,30.05,NE,34,3.0,6.0,54,0.00,,,0.00,,2013-04-14 22:32:00,
2013-04-15 01:42:00,63.0,46.0,30.05,NE,34,3.0,6.0,54,0.00,,,0.00,,2013-04-14 22:42:00,
2013-04-15 01:52:00,63.0,47.0,30.04,NNE,27,2.0,5.0,55,0.00,,,0.00,,2013-04-14 22:52:00,
2013-04-15 02:01:00,62.0,47.0,30.04,NE,44,2.0,5.0,57,0.00,,,0.00,,2013-04-14 23:01:00,
2013-04-15 02:12:00,62.0,47.0,30.04,NE,44,2.0,5.0,57,0.00,,,0.00,,2013-04-14 23:12:00,
2013-04-15 02:22:00,62.0,47.0,30.03,NE,47,3.0,6.0,57,0.00,,,0.00,,2013-04-14 23:22:00,
2013-04-15 02:32:00,62.0,47.0,30.04,NE,36,2.0,3.0,58,0.00,,,0.00,,2013-04-14 23:32:00,
2013-04-15 02:42:00,62.0,47.0,30.04,NE,36,2.0,3.0,58,0.00,,,0.00,,2013-04-14 23:42:00,
2013-04-15 02:52:00,62.0,47.0,30.03,NNE,15,1.0,4.0,58,0.00,,,0.00,,2013-04-14 23:52:00,
2013-04-15 03:01:00,62.0,47.0,30.03,NE,40,2.0,3.0,59,0.00,,,0.00,,2013-04-15 00:01:00,
2013-04-15 03:12:00,62.0,47.0,30.03,NE,40,2.0,3.0,59,0.00,,,0.00,,2013-04-15 00:12:00,
2013-04-15 03:22:00,62.0,47.0,30.02,NE,40,0.0,2.0,59,0.00,,,0.00,,2013-04-15 00:22:00,
2013-04-15 03:32:00,61.0,47.0,30.02,NE,38,0.0,3.0,59,0.00,,,0.00,,2013-04-15 00:32:00,
2013-04-15 03:42:00,61.0,47.0,30.02,NE,55,1.0,3.0,60,0.00,,,0.00,,2013-04-15 00:42:00,
2013-04-15 03:52:00,61.0,47.0,30.02,NE,55,1.0,3.0,60,0.00,,,0.00,,2013-04-15 00:52:00,
2013-04-15 04:02:00,61.0,47.0,30.02,NE,45,0.0,1.0,60,0.00,,,0.00,,2013-04-15 01:02:00,
2013-04-15 04:12:00,61.0,47.0,30.02,NE,45,0.0,1.0,60,0.00,,,0.00,,2013-04-15 01:12:00,
2013-04-15 04:22:00,61.0,48.0,30.01,North,0,0.0,0.0,62,0.00,,,0.00,,2013-04-15 01:22:00,
2013-04-15 04:32:00,60.0,47.0,30.01,West,274,1.0,3.0,62,0.00,,,0.00,,2013-04-15 01:32:00,
2013-04-15 04:42:00,60.0,47.0,30.01,West,274,1.0,3.0,62,0.00,,,0.00,,2013-04-15 01:42:00,
2013-04-15 04:52:00,61.0,48.0,30.01,NE,42,1.0,3.0,62,0.00,,,0.00,,2013-04-15 01:52:00,
2013-04-15 05:02:00,60.0,47.0,30.02,NE,47,1.0,2.0,62,0.00,,,0.00,,2013-04-15 02:02:00,
2013-04-15 05:11:00,60.0,47.0,30.02,NE,47,1.0,2.0,62,0.00,,,0.00,,2013-04-15 02:11:00,
2013-04-15 05:22:00,60.0,47.0,30.01,NE,46,0.0,1.0,63,0.00,,,0.00,,2013-04-15 02:22:00,
2013-04-15 05:31:00,60.0,48.0,30.01,NNE,33,1.0,2.0,64,0.00,,,0.00,,2013-04-15 02:31:00,
2013-04-15 05:42:00,60.0,48.0,30.01,NNE,33,1.0,2.0,64,0.00,,,0.00,,2013-04-15 02:42:00,
2013-04-15 05:52:00,61.0,46.0,30.01,NE,52,2.0,6.0,58,0.00,,,0.00,,2013-04-15 02:52:00,
2013-04-15 06:02:00,61.0,46.0,30.00,NNE,33,4.0,9.0,57,0.00,,,0.00,,2013-04-15 03:02:00,
2013-04-15 06:11:00,61.0,46.0,30.00,NNE,33,4.0,9.0,57,0.00,,,0.00,,2013-04-15 03:11:00,
2013-04-15 06:21:00,61.0,46.0,30.00,North,10,3.0,5.0,57,0.00,,,0.00,,2013-04-15 03:21:00,
2013-04-15 06:32:00,61.0,47.0,29.99,NNE,26,2.0,6.0,59,0.00,,,0.00,,2013-04-15 03:32:00,
2013-04-15 06:42:00,61.0,47.0,29.99,NNE,26,2.0,6.0,59,0.00,,,0.00,,2013-04-15 03:42:00,
2013-04-15 06:54:00,61.0,47.0,30.00,WNW,293,2.0,12.0,59,0.00,,,0.00,,2013-04-15 03:54:00,
2013-04-15 07:02:00,61.0,46.0,29.99,NE,35,2.0,6.0,58,0.00,,,0.00,,2013-04-15 04:02:00,
2013-04-15 07:12:00,61.0,46.0,29.99,NE,35,2.0,6.0,58,0.00,,,0.00,,2013-04-15 04:12:00,
2013-04-15 07:22:00,61.0,46.0,30.00,NE,56,1.0,3.0,57,0.00,,,0.00,,2013-04-15 04:22:00,
2013-04-15 07:32:00,61.0,46.0,30.01,WNW,292,0.0,2.0,57,0.00,,,0.00,,2013-04-15 04:32:00,
2013-04-15 07:42:00,61.0,46.0,30.01,WNW,292,0.0,2.0,57,0.00,,,0.00,,2013-04-15 04:42:00,
2013-04-15 07:52:00,61.0,45.0,30.01,North,359,5.0,9.0,55,0.00,,,0.00,,2013-04-15 04:52:00,
2013-04-15 08:02:00,61.0,47.0,30.02,NNE,17,6.0,17.0,60,0.00,,,0.00,,2013-04-15 05:02:00,
2013-04-15 08:12:00,61.0,47.0,30.02,NNE,17,6.0,17.0,60,0.00,,,0.00,,2013-04-15 05:12:00,
2013-04-15 08:22:00,60.0,45.0,30.01,NE,55,8.0,16.0,58,0.00,,,0.00,,2013-04-15 05:22:00,
2013-04-15 08:32:00,60.0,44.0,30.01,NNE,29,10.0,15.0,56,0.00,,,0.00,,2013-04-15 05:32:00,
2013-04-15 08:42:00,60.0,44.0,30.01,NNE,29,10.0,15.0,56,0.00,,,0.00,,2013-04-15 05:42:00,
2013-04-15 08:52:00,60.0,44.0,30.01,NNE,22,4.0,8.0,56,0.00,,,0.00,,2013-04-15 05:52:00,
2013-04-15 09:01:00,61.0,45.0,30.00,NNE,21,2.0,5.0,56,0.00,,,0.00,,2013-04-15 06:01:00,
2013-04-15 09:12:00,61.0,45.0,30.00,NNE,21,2.0,5.0,56,0.00,,,0.00,,2013-04-15 06:12:00,
2013-04-15 09:22:00,63.0,46.0,30.00,North,2,0.0,2.0,53,0.00,,,0.00,,2013-04-15 06:22:00,
2013-04-15 09:32:00,65.0,45.0,30.00,West,278,1.0,3.0,49,0.00,,,0.00,,2013-04-15 06:32:00,
2013-04-15 09:42:00,65.0,45.0,30.00,West,278,1.0,3.0,49,0.00,,,0.00,,2013-04-15 06:42:00,
2013-04-15 09:52:00,68.0,45.0,30.00,ENE,62,1.0,3.0,44,0.00,,,0.00,,2013-04-15 06:52:00,
2013-04-15 10:02:00,67.0,45.0,29.99,NNE,26,2.0,6.0,45,0.00,,,0.00,,2013-04-15 07:02:00,
2013-04-15 10:42:00,71.0,45.0,29.98,NNW,348,2.0,6.0,39,0.00,,,0.00,,2013-04-15 07:42:00,
2013-04-15 10:53:00,69.0,43.0,29.99,NNE,15,7.0,22.0,39,0.00,,,0.00,,2013-04-15 07:53:00,
2013-04-15 11:02:00,67.0,43.0,29.99,North,10,9.0,17.0,41,0.00,,,0.00,,2013-04-15 08:02:00,
2013-04-15 11:11:00,67.0,43.0,29.99,North,10,9.0,17.0,41,0.00,,,0.00,,2013-04-15 08:11:00,
2013-04-15 11:21:00,69.0,44.0,29.99,North,4,8.0,14.0,41,0.00,,,0.00,,2013-04-15 08:21:00,
2013-04-15 11:42:00,69.0,46.0,29.99,North,352,9.0,23.0,43,0.00,,,0.00,,2013-04-15 08:42:00,
2013-04-15 11:52:00,65.0,45.0,29.99,North,356,11.0,21.0,48,0.00,,,0.00,,2013-04-15 08:52:00,
2013-04-15 12:01:00,66.0,44.0,30.00,North,7,10.0,22.0,45,0.00,,,0.00,,2013-04-15 09:01:00,
2013-04-15 12:12:00,66.0,44.0,30.00,North,7,10.0,22.0,45,0.00,,,0.00,,2013-04-15 09:12:00,
2013-04-15 12:21:00,66.0,42.0,29.99,NNE,26,6.0,11.0,41,0.00,,,0.00,,2013-04-15 09:21:00,
2013-04-15 12:32:00,64.0,42.0,30.00,NNE,23,7.0,12.0,45,0.00,,,0.00,,2013-04-15 09:32:00,
2013-04-15 12:42:00,64.0,42.0,30.00,NNE,23,7.0,12.0,45,0.00,,,0.00,,2013-04-15 09:42:00,
2013-04-15 12:52:00,65.0,44.0,30.00,North,8,3.0,10.0,46,0.00,,,0.00,,2013-04-15 09:52:00,
2013-04-15 13:02:00,67.0,44.0,29.99,NE,47,6.0,12.0,44,0.00,,,0.00,,2013-04-15 10:02:00,
2013-04-15 13:12:00,67.0,44.0,29.99,NE,47,6.0,12.0,44,0.00,,,0.00,,2013-04-15 10:12:00,
2013-04-15 13:22:00,69.0,46.0,29.99,North,354,5.0,7.0,43,0.00,,,0.00,,2013-04-15 10:22:00,
2013-04-15 13:32:00,68.0,44.0,29.98,NE,39,7.0,11.0,42,0.00,,,0.00,,2013-04-15 10:32:00,
2013-04-15 13:42:00,68.0,44.0,29.98,NE,39,7.0,11.0,42,0.00,,,0.00,,2013-04-15 10:42:00,
2013-04-15 13:52:00,69.0,44.0,29.99,NE,41,8.0,14.0,41,0.00,,,0.00,,2013-04-15 10:52:00,
2013-04-15 14:02:00,65.0,45.0,30.00,NE,50,10.0,17.0,48,0.00,,,0.00,,2013-04-15 11:02:00,
2013-04-15 14:12:00,65.0,45.0,30.00,NE,50,10.0,17.0,48,0.00,,,0.00,,2013-04-15 11:12:00,
2013-04-15 14:21:00,65.0,44.0,30.01,East,90,14.0,24.0,46,0.00,,,0.00,,2013-04-15 11:21:00,
2013-04-15 14:32:00,66.0,44.0,30.00,NNE,31,9.0,16.0,45,0.00,,,0.00,,2013-04-15 11:32:00,
2013-04-15 14:42:00,66.0,44.0,30.00,NNE,31,9.0,16.0,45,0.00,,,0.00,,2013-04-15 11:42:00,
2013-04-15 14:52:00,65.0,43.0,30.00,North,10,10.0,13.0,45,0.00,,,0.00,,2013-04-15 11:52:00,
2013-04-15 15:02:00,67.0,44.0,29.99,North,10,7.0,13.0,44,0.00,,,0.00,,2013-04-15 12:02:00,
2013-04-15 15:12:00,67.0,44.0,29.99,North,10,7.0,13.0,44,0.00,,,0.00,,2013-04-15 12:12:00,
2013-04-15 15:22:00,66.0,45.0,29.99,ENE,67,9.0,13.0,47,0.00,,,0.00,,2013-04-15 12:22:00,
2013-04-15 15:32:00,67.0,45.0,29.99,North,5,8.0,15.0,45,0.00,,,0.00,,2013-04-15 12:32:00,
2013-04-15 15:42:00,67.0,45.0,29.99,North,5,8.0,15.0,45,0.00,,,0.00,,2013-04-15 12:42:00,
2013-04-15 15:52:00,68.0,45.0,29.98,NNE,21,6.0,13.0,43,0.00,,,0.00,,2013-04-15 12:52:00,
2013-04-15 16:02:00,67.0,44.0,29.98,North,6,11.0,15.0,44,0.00,,,0.00,,2013-04-15 13:02:00,
2013-04-15 16:12:00,67.0,44.0,29.98,North,6,11.0,15.0,44,0.00,,,0.00,,2013-04-15 13:12:00,
2013-04-15 16:21:00,68.0,44.0,29.97,North,356,8.0,15.0,42,0.00,,,0.00,,2013-04-15 13:21:00,
2013-04-15 16:32:00,70.0,42.0,29.98,ENE,64,6.0,18.0,36,0.00,,,0.00,,2013-04-15 13:32:00,
2013-04-15 16:42:00,70.0,42.0,29.98,ENE,64,6.0,18.0,36,0.00,,,0.00,,2013-04-15 13:42:00,
2013-04-15 16:52:00,69.0,42.0,29.97,NNE,30,9.0,13.0,37,0.00,,,0.00,,2013-04-15 13:52:00,
2013-04-15 17:02:00,68.0,39.0,29.97,NNE,31,9.0,14.0,35,0.00,,,0.00,,2013-04-15 14:02:00,
2013-04-15 17:12:00,68.0,39.0,29.97,NNE,31,9.0,14.0,35,0.00,,,0.00,,2013-04-15 14:12:00,
2013-04-15 17:21:00,69.0,39.0,29.97,NNE,24,8.0,12.0,34,0.00,,,0.00,,2013-04-15 14:21:00,
2013-04-15 17:32:00,70.0,38.0,29.96,North,358,8.0,12.0,31,0.00,,,0.00,,2013-04-15 14:32:00,
2013-04-15 17:43:00,70.0,38.0,29.96,North,358,8.0,12.0,31,0.00,,,0.00,,2013-04-15 14:43:00,
2013-04-15 17:52:00,69.0,39.0,29.96,NE,35,7.0,12.0,33,0.00,,,0.00,,2013-04-15 14:52:00,
2013-04-15 18:02:00,69.0,39.0,29.96,NNE,27,7.0,13.0,34,0.00,,,0.00,,2013-04-15 15:02:00,
2013-04-15 18:12:00,69.0,39.0,29.96,NNE,27,7.0,13.0,34,0.00,,,0.00,,2013-04-15 15:12:00,
2013-04-15 18:21:00,70.0,40.0,29.96,NE,41,5.0,8.0,33,0.00,,,0.00,,2013-04-15 15:21:00,
2013-04-15 18:33:00,70.0,40.0,29.96,NNE,21,7.0,15.0,33,0.00,,,0.00,,2013-04-15 15:33:00,
2013-04-15 18:43:00,70.0,40.0,29.96,NNE,21,7.0,15.0,33,0.00,,,0.00,,2013-04-15 15:43:00,
2013-04-15 18:53:00,69.0,39.0,29.97,NNE,25,8.0,12.0,33,0.00,,,0.00,,2013-04-15 15:53:00,
2013-04-15 19:02:00,69.0,39.0,29.97,NE,46,5.0,11.0,33,0.00,,,0.00,,2013-04-15 16:02:00,
2013-04-15 19:12:00,69.0,39.0,29.97,NE,46,5.0,11.0,33,0.00,,,0.00,,2013-04-15 16:12:00,
2013-04-15 19:22:00,67.0,39.0,29.97,NE,55,6.0,12.0,36,0.00,,,0.00,,2013-04-15 16:22:00,
2013-04-15 19:32:00,64.0,40.0,29.97,NE,45,9.0,13.0,42,0.00,,,0.00,,2013-04-15 16:32:00,
2013-04-15 19:42:00,64.0,40.0,29.97,NE,45,9.0,13.0,42,0.00,,,0.00,,2013-04-15 16:42:00,
2013-04-15 19:52:00,63.0,41.0,29.98,NE,36,8.0,12.0,44,0.00,,,0.00,,2013-04-15 16:52:00,
2013-04-15 20:02:00,63.0,42.0,29.98,NNE,31,8.0,17.0,47,0.00,,,0.00,,2013-04-15 17:02:00,
2013-04-15 20:12:00,63.0,42.0,29.98,NNE,31,8.0,17.0,47,0.00,,,0.00,,2013-04-15 17:12:00,
2013-04-15 20:21:00,62.0,45.0,29.98,NE,36,6.0,14.0,53,0.00,,,0.00,,2013-04-15 17:21:00,
2013-04-15 20:32:00,62.0,45.0,29.98,NE,41,7.0,14.0,53,0.00,,,0.00,,2013-04-15 17:32:00,
2013-04-15 20:42:00,62.0,45.0,29.98,NE,41,7.0,14.0,53,0.00,,,0.00,,2013-04-15 17:42:00,
2013-04-15 20:51:00,61.0,43.0,29.98,NNE,20,7.0,12.0,51,0.00,,,0.00,,2013-04-15 17:51:00,
2013-04-15 21:02:00,61.0,43.0,29.99,NE,37,5.0,12.0,51,0.00,,,0.00,,2013-04-15 18:02:00,
2013-04-15 21:22:00,61.0,43.0,30.00,NE,43,5.0,12.0,52,0.00,,,0.00,,2013-04-15 18:22:00,
2013-04-15 21:32:00,60.0,44.0,30.00,North,7,6.0,10.0,55,0.00,,,0.00,,2013-04-15 18:32:00,
2013-04-15 21:42:00,60.0,44.0,30.00,North,7,6.0,10.0,55,0.00,,,0.00,,2013-04-15 18:42:00,
2013-04-15 21:51:00,60.0,44.0,30.01,NE,36,6.0,11.0,55,0.00,,,0.00,,2013-04-15 18:51:00,
2013-04-15 22:01:00,60.0,45.0,30.01,NE,43,4.0,9.0,57,0.00,,,0.00,,2013-04-15 19:01:00,
2013-04-15 22:11:00,60.0,45.0,30.01,NE,43,4.0,9.0,57,0.00,,,0.00,,2013-04-15 19:11:00,
2013-04-15 22:21:00,60.0,44.0,30.02,NNE,19,5.0,9.0,56,0.00,,,0.00,,2013-04-15 19:21:00,
2013-04-15 22:42:00,60.0,45.0,30.02,NE,38,3.0,7.0,57,0.00,,,0.00,,2013-04-15 19:42:00,
2013-04-15 22:53:00,60.0,45.0,30.03,North,352,1.0,3.0,58,0.00,,,0.00,,2013-04-15 19:53:00,
2013-04-15 23:01:00,60.0,46.0,30.02,NNE,28,1.0,4.0,59,0.00,,,0.00,,2013-04-15 20:01:00,
2013-04-15 23:11:00,60.0,46.0,30.02,NNE,28,1.0,4.0,59,0.00,,,0.00,,2013-04-15 20:11:00,
2013-04-15 23:21:00,60.0,46.0,30.02,WNW,289,2.0,7.0,60,0.00,,,0.00,,2013-04-15 20:21:00,
2013-04-15 23:31:00,60.0,47.0,30.02,North,9,2.0,5.0,61,0.00,,,0.00,,2013-04-15 20:31:00,
2013-04-15 23:42:00,60.0,47.0,30.02,North,9,2.0,5.0,61,0.00,,,0.00,,2013-04-15 20:42:00,
2013-04-15 23:51:00,59.0,46.0,30.02,SSE,154,1.0,3.0,61,0.00,,,0.00,,2013-04-15 20:51:00,